Simultaneous Nadir Overpasses (SNOs) Predictions

Prediction of SNOs between METOP-C and LANDSAT-8 Satellite Orbit:

Table of predicted SNOs for the next 14.0 days since TLE Epoch: 4/27/2024
Index Date (METOP-C) Time (METOP-C) Lat,Lon (METOP-C) SZA (METOP-C ) Date (LANDSAT-8) Time (LANDSAT-8) Lat,Lon (LANDSAT-8) SZA (LANDSAT-8 ) Distance(km) Time Diff (sec)
1 04/27/2024 08:07:33 81.04, 96.00 69.00 04/27/2024 08:07:59 81.04, 96.13 69.02 2.45 26
2 04/27/2024 08:58:11 -81.07, -95.77 110.90 04/27/2024 08:57:25 -81.06, -95.95 110.95 3.20 46
3 04/30/2024 03:41:57 81.03, 162.33 68.13 04/30/2024 03:42:11 81.04, 162.50 68.15 2.83 14
4 04/30/2024 04:32:35 -81.07, -29.45 111.77 04/30/2024 04:31:37 -81.06, -29.57 111.82 2.34 58
5 05/02/2024 23:16:18 81.05,-130.78 67.36 05/02/2024 23:16:20 81.05,-130.91 67.34 2.23 2
6 05/03/2024 00:06:57 -81.07, 37.06 112.59 05/03/2024 00:05:46 -81.07, 37.05 112.62 0.29 71
7 05/05/2024 18:00:01 -81.03, 127.76 113.50 05/05/2024 18:01:04 -81.03, 127.58 113.50 3.26 63
8 05/05/2024 18:50:41 81.05, -64.46 66.55 05/05/2024 18:50:29 81.05, -64.43 66.55 0.51 12
9 05/08/2024 13:34:24 -81.02,-166.10 114.30 05/08/2024 13:35:12 -81.02,-166.04 114.27 1.03 48



Historial Predications of SNOs between METOP-C and LANDSAT-8
